Miscellaneous Local Product
Issued by NWS Hastings, NE

Home | Current Version | Previous Version | Text Only | Print | Product List | Glossary Off
Versions: 1 2 3 4 5 6 7 8 9 10 11 12 13 14 15 16 17 18 19 20 21 22 23 24 25 26 27 28 29 30 31 32 33 34 35 36 37 38 39 40 41 42 43 44 45 46 47 48 49 50

000
AXUS43 KGID 221502
MISGRI

GID CWA HOURLY WEATHER ROUNDUP
NATIONAL WEATHER SERVICE HASTINGS NE
900 AM CST SAT NOV 22 2014

NOTE: "FAIR" INDICATES FEW OR NO CLOUDS BELOW 12,000 FEET WITH NO
SIGNIFICANT WEATHER AND/OR OBSTRUCTIONS TO VISIBILITY.

...SOUTH CENTRAL NEBRASKA...

CITY           SKY/WX    TMP DP  RH WIND       PRES   REMARKS
GRAND ISLAND   MOSUNNY  N/A N/A N/A S9        29.80F FOG
HASTINGS       FOG       32  31  96 SW8       29.80F VSB 1/2 WCI  25
KEARNEY        SUNNY     28  27  93 S8        29.80F WCI  20
ORD            SUNNY     29  26  89 CALM      29.75S FOG
YORK           FOG       36  36 100 SW10      29.82F VSB<1/4 WCI  28
AURORA         FOG       35  35 100 SW8       29.81F VSB 1/4 WCI  29
LEXINGTON      SUNNY    N/A N/A N/A CALM      29.78F HAZE
HOLDREGE       SUNNY     29  26  90 SW5       29.79F WCI  24
HEBRON         FOG       37  36  94 SW9       29.86F VSB 3/4 WCI  31

...NEBRASKA PANHANDLE...

CITY           SKY/WX    TMP DP  RH WIND       PRES   REMARKS
CHADRON        CLOUDY    47  23  38 SW15      29.58F
ALLIANCE       PTSUNNY   44  23  43 SW15      29.67F
SCOTTSBLUFF    CLOUDY    39  22  50 S9        29.70F WCI  33
SIDNEY         MOSUNNY   41  21  44 SW13      29.73F

...WESTERN AND NORTH CENTRAL NEBRASKA...

CITY           SKY/WX    TMP DP  RH WIND       PRES   REMARKS
VALENTINE      SUNNY     34  26  72 SW10      29.64F WCI  26
AINSWORTH      SUNNY     39  25  56 SW10      29.67F WCI  32
ONEILL         SUNNY     33  30  88 S9        29.71S WCI  25
BROKEN BOW     SUNNY     35  30  82 SW5       29.75F WCI  31
IMPERIAL       SUNNY     32  20  61 SW6       29.76F WCI  26
NORTH PLATTE   SUNNY     25  22  88 CALM      29.77F
MCCOOK         MOSUNNY   27  21  78 W3        29.79F

...EASTERN NEBRASKA...

CITY           SKY/WX    TMP DP  RH WIND       PRES   REMARKS
NORFOLK        CLOUDY    34  33  96 SW14      29.78F FOG     WCI  25
SO SIOUX CITY  CLOUDY    38  35  89 S9        29.80F FOG     WCI  31
TEKAMAH        CLOUDY    39  36  89 S12       29.82F FOG     WCI  32
COLUMBUS       CLOUDY    36  34  93 SW9       29.83F WCI  29
ALBION         CLOUDY    30  28  90 S6        29.78F FOG     WCI  24
OMAHA EPPLEY   CLOUDY    40  38  93 S13       29.86S FOG     WCI  32
OFFUTT AFB     CLOUDY    40  38  95 S8        29.85F FOG     WCI  34
MILLARD        CLOUDY    40  38  93 SW5       29.85S FOG
LINCOLN        CLOUDY    39  36  89 SW14      29.86F FOG     WCI  31
NEBRASKA CITY  CLOUDY    40  40  99 SW14      29.87F FOG     WCI  33
BEATRICE       CLOUDY    39  39 100 S9        29.87F FOG     WCI  32
FALLS CITY     CLOUDY    45  43  93 SW14G21   29.90S FOG

...NORTHERN KANSAS...

CITY           SKY/WX    TMP DP  RH WIND       PRES   REMARKS
GOODLAND       SUNNY     47  22  37 SW12      29.81F
HILL CITY      SUNNY     32  26  78 S3        29.83F
NORTON         SUNNY     28  25  86 SW5       29.79F WCI  23
PHILLIPSBURG   SUNNY     27  27 100 CALM      29.84F FOG
SMITH CENTER   FOG       28  28 100 S6        29.86S VSB 0   WCI  22
BELOIT         CLOUDY    37  37 100 S12       29.88F WCI  30
HAYS           SUNNY     34  28  80 SW9       29.87S WCI  26
RUSSELL        SUNNY     35  35 100 S12       29.86F FOG     WCI  27
CONCORDIA      FOG       39  39 100 SW10      29.89S VSB 1/4 WCI  32
SALINA         FOG       44  42  93 S13       29.93R VSB 1
TOPEKA         FOG       51  51 100 S6        29.96R VSB 1/2



USA.gov is the U.S. government's official web portal to all federal, state and local government web resources and services.